User: anonymous   Login
Location: Unspecified
(0.0000°N, 0.0000°E)
Time: 05:39:56
(UTC+01:00)
Language:

Coronas F rocket - Orbit

View from above orbital plane
View from above orbital plane
View from above satellite
View from above satellite

Ground track
Ground track

The orbit data is extracted from the following two-line orbital elements,

1 26874U 01032B   17018.83803521  .00054329 -49257-7  12555-3 0  9999
2 26874  82.4531  43.2144 0006811  98.5392 261.6656 15.96999214869866
Epoch (UTC): 18 January 2017 20:06:46
Eccentricity: 0.0006811
inclination: 82.4531°
perigee height: 278 km
apogee height: 287 km
right ascension of ascending node: 43.2144°
argument of perigee: 98.5392°
revolutions per day: 15.96999214
mean anomaly at epoch: 261.6656°
orbit number at epoch: 86986

The dashed part of the orbit path shows where the satellite is in the earth's shadow,  

DLR